Regional Weather Roundup
Issued by NWS Charleston, WV

Home | Current Version | Previous Version | Graphics & Text | Print | Product List | Glossary On
Versions: 1 2 3 4 5 6 7 8 9 10 11 12 13 14 15 16 17 18 19 20 21 22 23 24 25 26 27
000
ASUS41 KRLX 230810
RWRRLX
West Virginia Regional Weather Roundup
National Weather Service Charleston WV
400 AM EDT SAT JUL 23 2016

Note: "fair" indicates few or no clouds below 12,000 feet with no
significant weather and/or obstructions to visibility.

WVZ003-230900-
Northern Panhandle of West Virginia

CITY           SKY/WX    TMP DP  RH WIND       PRES   REMARKS
WHEELING         N/A     73  67  81 SW6       30.02F
$$

WVZ009-230900-
Northwest West Virginia

CITY           SKY/WX    TMP DP  RH WIND       PRES   REMARKS
PARKERSBURG      N/A     69  67  93 CALM      30.05F
$$

WVZ006-230900-
Western West Virginia

CITY           SKY/WX    TMP DP  RH WIND       PRES   REMARKS
HUNTINGTON     FOG       70  68  93 SW3       30.03F VSB 1/4
$$

WVZ015-230900-
West Central West Virginia

CITY           SKY/WX    TMP DP  RH WIND       PRES   REMARKS
CHARLESTON       N/A     69  67  93 CALM      30.04S
$$

WVZ022-031-230900-
North Central West Virginia

CITY           SKY/WX    TMP DP  RH WIND       PRES   REMARKS
CLARKSBURG       N/A     70  68  93 CALM      30.05S
MORGANTOWN       N/A     71  69  93 CALM      30.06R FOG
$$

WVZ025-035-042-045-230900-
Southern West Virginia

CITY           SKY/WX    TMP DP  RH WIND       PRES   REMARKS
BECKLEY          N/A     67  65  93 CALM      30.13S
LOGAN            N/A     70  70 100 CALM      30.07R FOG
BLUEFIELD        N/A     67  63  87 W5        30.15F
LEWISBURG        N/A     64  63  96 CALM      30.11S
$$

WVZ047-230900-
Northern Mountains of West Virginia

CITY           SKY/WX    TMP DP  RH WIND       PRES   REMARKS
ELKINS         FOG       66  63  90 CALM      30.11R VSB 1/4
$$

WVZ052-230900-
Eastern Panhandle of West Virginia

CITY           SKY/WX    TMP DP  RH WIND       PRES   REMARKS
MARTINSBURG      N/A     79  68  69 SW3       29.96R
PETERSBURG       N/A     68  68  99 CALM      30.01R FOG
$$




USA.gov is the U.S. government's official web portal to all federal, state and local government web resources and services.